Location: Edmonton
(53.5500°N, 113.5000°W)
Time: 02:58:03
(UTC-07:00)

Daily predictions for brighter satellites

Satellite Brightness Start Highest point End
(mag) Time Altitude Azimuth Time Altitude Azimuth Time Altitude Azimuth
CENTAUR R/B 3.9 03:56:21 38° ENE 03:56:21 38° ENE 04:00:39 10° NE
ATLAS 5 CENTAUR R/B 4.3 04:06:50 21° NE 04:06:50 21° NE 04:09:13 10° ENE
Cosmos 2369 Rocket 4.2 04:13:48 21° SE 04:13:48 21° SE 04:15:36 10° SE
ATLAS 3B R/B 3.9 04:19:20 35° NNE 04:19:20 35° NNE 04:24:34 10° ENE
Cosmos 2219 Rocket 4.4 04:22:50 17° NNE 04:22:50 17° NNE 04:24:07 10° NNE
ADEOS II 3.9 04:24:12 10° NNE 04:26:31 25° NE 04:26:31 25° NE
ADEOS Rocket 4.5 04:27:55 10° NNE 04:30:28 28° NNE 04:30:28 28° NNE
Cosmos 1943 Rocket 3.2 04:37:39 41° E 04:37:39 41° E 04:41:48 10° ESE
NOSS 3-2 (C) 4.4 04:47:00 41° N 04:47:00 41° N 04:52:45 10° NE
CZ-4C R/B 3.5 04:50:00 36° N 04:50:11 36° N 04:56:44 10° ENE
Cosmos 2184 Rocket 4.1 04:52:20 70° ENE 04:52:20 70° ENE 04:58:14 10° NNE
Cosmos 839 Rocket 4.3 04:52:47 66° NNE 04:53:08 67° NE 04:59:20 10° SE
Cosmos 2333 Rocket 4.0 04:59:02 21° N 04:59:02 21° N 05:01:13 10° NNE
COSMO-SKYMED 1 4.1 05:03:12 10° SE 05:05:46 32° ESE 05:05:46 32° ESE
NOSS 3-2 (A) 4.4 05:08:25 39° N 05:08:28 39° N 05:15:16 10° ENE
SL-16 R/B 3.2 05:11:04 35° N 05:11:04 35° N 05:14:28 10° NNE
Lacrosse 5 2.7 05:10:49 46° SE 05:10:49 46° SE 05:15:38 10° ENE
Cosmos 2360 Rocket 4.3 05:12:59 14° N 05:12:59 14° N 05:14:53 10° NNE
Cosmos 2322 Rocket 4.4 05:14:06 13° N 05:14:06 13° N 05:16:45 10° NNE
Cosmos 1980 Rocket 4.3 05:13:27 14° N 05:14:23 14° NNE 05:17:18 10° NE
Feng Yun 1-1 Rocket 4.4 05:11:14 10° NNE 05:16:50 68° ESE 05:21:45 13° S
Cosmos 1340 4.3 05:22:06 33° ESE 05:22:06 33° ESE 05:24:41 10° SE
Cosmos 44 4.5 05:19:33 28° S 05:21:46 43° ESE 05:26:36 10° NE
Lacrosse 5 rocket 2.5 05:25:39 42° NE 05:25:39 42° NE 05:28:54 10° E
Cosmos 1610 Rocket 4.4 05:19:19 10° S 05:25:34 87° E 05:31:55 10° NNE
Cosmos 2263 4.5 05:28:14 53° SSW 05:28:14 53° SSW 05:32:40 10° SSE
Cosmos 1420 Rocket 3.9 05:28:59 85° NNE 05:29:04 86° ENE 05:34:18 10° SSE
Cosmos 2237 Rocket 3.7 05:37:00 22° N 05:37:00 22° N 05:40:00 10° NNE
Ariane Rocket 4.4 05:34:26 10° NNE 05:39:10 38° E 05:43:52 10° SSE
Meteor 1-19 Rocket 4.3 05:42:53 59° WSW 05:42:53 59° WSW 05:48:13 10° S
CZ-4B R/B 4.4 05:38:51 10° N 05:41:37 27° NNW 05:41:37 27° NNW
CENTAUR R/B 2.9 05:43:33 46° NW 05:44:39 49° NNW 05:51:54 10° NE
SL-16 R/B 4.3 05:44:36 13° N 05:45:51 14° N 05:48:40 10° NE
Meteor 2-13 Rocket 4.4 05:41:26 10° S 05:47:37 89° E 05:53:48 10° NNE
ATLAS 5 CENTAUR R/B 3.2 05:48:23 31° NNW 05:50:09 38° NNE 05:55:48 10° E
Nadezhda 3 Rocket 4.0 05:49:03 30° NNW 05:52:09 58° W 05:58:22 10° S
COSMOS 2455 4.4 05:50:17 20° NNW 05:52:12 24° N 05:57:00 10° ENE
CZ-4B R/B 4.3 05:47:56 10° N 05:51:45 59° NNW 05:51:45 59° NNW
Cosmos 2369 Rocket 3.3 05:55:39 27° SW 05:55:39 27° SW 05:58:52 10° S
Lacrosse 4 Rocket 1.8 05:56:01 49° S 05:56:01 49° S 05:59:15 10° SSE
SKYMED 2 4.1 05:51:08 10° S 05:54:22 46° SSW 05:54:22 46° SSW
Cosmos 1025 Rocket 3.6 05:57:49 43° SSW 05:57:49 43° SSW 06:00:55 10° S
DMSP B5D1-3 4.4 05:53:22 10° S 05:58:30 74° WSW 06:00:46 34° NNW
Meteor 2-4 Rocket 3.7 06:02:22 42° NW 06:03:52 55° W 06:09:23 10° S
Meteor 1-23 Rocket 4.1 06:01:40 33° NNW 06:04:07 62° W 06:09:36 10° S
Cosmos 2219 Rocket 3.9 06:04:33 17° NNW 06:04:33 17° NNW 06:07:54 10° NNE
Meteor 1-11 Rocket 3.6 05:59:33 10° SSW 06:05:18 71° WNW 06:10:58 10° N
Cosmos 1603 3.8 06:06:16 45° W 06:07:23 51° NW 06:12:54 10° NNE
ADEOS II 3.0 06:04:10 10° N 06:07:28 30° NNW 06:07:28 30° NNW
ATLAS 3B R/B 3.4 06:06:36 25° NW 06:10:26 47° NNE 06:16:57 10° E
Cosmos 962 Rocket 4.4 06:05:17 10° SSW 06:11:30 78° WNW 06:17:52 10° N
Abrixas rocket 3.6 06:11:18 30° S 06:11:40 31° S 06:14:42 10° ESE
Cosmos 1867 4.0 06:09:54 29° NNW 06:12:35 59° NE 06:17:59 10° ESE
Cosmos 1727 Rocket 4.2 06:07:17 10° N 06:13:29 73° ENE 06:19:41 10° SSE
Cosmos 2074 Rocket 4.5 06:15:47 35° WNW 06:16:03 35° WNW 06:21:44 10° N
Cosmos 1515 4.0 06:15:57 19° N 06:18:36 65° ENE 06:22:24 10° SSE
Meteor 1-5 Rocket 4.1 06:13:24 10° S 06:18:41 80° E 06:24:02 10° NNE
ADEOS Rocket 4.3 06:14:23 10° N 06:17:25 21° NNW 06:17:25 21° NNW
Cosmos 1943 Rocket 2.5 06:19:13 37° W 06:20:14 41° WSW 06:25:21 10° S
SL-24 DEB 4.2 06:15:35 10° S 06:20:21 65° W 06:25:08 10° N
Cosmos 1110 Rocket 4.1 06:17:45 21° NNW 06:21:22 79° ENE 06:26:34 10° SSE
Cosmos 44 Rocket 3.4 06:20:09 36° WSW 06:22:08 60° NW 06:27:08 10° NE
CSL-04 DEB 4.5 06:20:37 10° NNE 06:24:43 81° ESE 06:28:54 10° SSW
Cosmos 1602 Rocket 4.0 06:20:59 10° N 06:25:28 62° ENE 06:29:53 10° SSE
Meteor 2-8 Rocket 4.4 06:20:49 10° NNW 06:26:53 61° W 06:32:55 10° S
Cosmos 1943 3.1 06:21:20 10° SW 06:26:57 68° NW 06:32:38 10° NNE
Cosmos 2084 Rocket 4.4 06:27:44 25° NNW 06:29:01 32° NNE 06:32:31 10° E
Helios 1B rocket 2.8 06:25:55 10° SSE 06:30:00 64° ENE 06:34:08 10° N
Meteor 2-19 Rocket 4.5 06:24:29 10° S 06:30:35 83° E 06:36:42 10° NNE
Cosmos 2341 Rocket 4.0 06:27:04 10° SSW 06:33:13 58° WNW 06:39:23 10° N
IDEFIX/ARIANE 42P 3.9 06:29:23 10° NNE 06:34:19 41° E 06:39:13 10° SSE
Cosmos 1544 Rocket 3.5 06:31:15 10° S 06:35:38 87° W 06:40:06 10° N
Okean 1 Rocket 4.3 06:37:53 24° NNW 06:37:53 24° NNW 06:40:12 10° N
Cosmos 1656 Rocket 3.7 06:33:07 24° NW 06:36:31 61° WSW 06:42:06 10° SSE
CZ-4C R/B 3.1 06:35:12 21° NW 06:39:55 62° NNE 06:47:23 10° ESE
SL-24 R/B 4.4 06:36:18 10° NNE 06:41:50 76° WNW 06:46:28 10° SSW
Cosmos 2333 Rocket 3.9 06:41:03 15° NNW 06:42:10 15° NNW 06:45:29 10° NNE
Cosmos 1461 4.2 06:39:46 10° SSW 06:43:47 43° SE 06:47:42 10° NE
COSMO-SKYMED 1 3.9 06:40:18 10° SSW 06:42:59 22° WSW 06:42:59 22° WSW
Okean 2 4.1 06:43:45 30° WNW 06:44:21 32° W 06:48:03 10° SSW
Cosmos 1536 3.5 06:44:07 30° W 06:44:41 32° WNW 06:48:21 10° N
CZ-2C R/B 3.4 06:39:54 10° NNE 06:44:58 51° E 06:49:52 10° S
PAYLOAD A 4.4 06:40:14 10° NNE 06:45:38 71° ESE 06:51:04 10° S
Cosmos 1339 Rocket 4.4 06:42:03 10° NNW 06:48:15 76° W 06:54:30 10° S
NOAA 6 4.4 06:44:00 10° N 06:48:46 40° WNW 06:53:32 10° SW
Okean-O 4.3 06:45:36 10° N 06:47:21 17° NNW 06:47:21 17° NNW
Cosmos 1500 3.7 06:48:28 10° S 06:52:11 62° E 06:55:57 10° NNE
Lacrosse 5 1.8 06:50:03 20° W 06:53:38 73° NNW 06:58:45 10° ENE
SL-16 R/B 3.6 06:52:57 18° NW 06:54:17 20° NNW 06:58:24 10° NNE
Cosmos 2154 Rocket 4.5 06:48:44 10° SW 06:54:21 35° WNW 07:00:00 10° N
Cosmos 1302 Rocket 4.1 06:49:31 11° NNW 06:54:33 79° ENE 06:59:51 10° SSE
CZ-4 R/B 1.6 06:50:56 10° NNE 06:54:54 71° ESE 06:58:47 10° S
Cosmos 1892 Rocket 4.4 06:53:34 22° NW 06:55:26 30° W 06:59:20 10° SSW
Cosmos 1743 4.4 06:52:43 10° SSE 06:56:20 37° E 06:59:59 10° NNE
Cosmos 1340 4.0 06:57:02 21° W 06:57:02 21° W 06:59:32 10° SW
Cosmos 2084 3.1 06:53:57 10° SW 06:57:47 83° SE 07:01:36 10° NE
Cosmos 2360 Rocket 4.3 06:55:08 10° NNW 06:58:07 14° NNE 07:01:05 10° NE
USA 229 DEB 3.7 06:51:21 10° SW 06:58:16 87° NW 07:05:21 10° NE
USA 229 3.7 06:51:28 10° SW 06:58:23 88° NW 07:05:27 10° NE
Cosmos 2278 4.1 06:53:39 11° NNW 06:59:00 64° NE 07:04:38 10° SE
Meteor 1-28 Rocket 4.3 06:56:05 10° SSW 06:59:14 24° W 06:59:45 23° W
Cosmos 1437 4.5 06:56:49 10° N 06:59:50 33° ENE 07:02:50 10° SE
Cosmos 1980 Rocket 3.7 06:55:33 10° NNW 07:00:22 28° NE 07:05:11 10° E
Cosmos 2322 Rocket 4.1 06:56:26 10° NNW 07:00:27 19° NNE 07:04:27 10° ENE
Cosmos 1825 Rocket 4.4 06:56:22 10° N 07:00:45 51° ENE 07:05:03 10° SSE
SMAP 3.6 06:56:11 10° NNE 07:00:51 64° ESE 07:05:28 10° S
MINOTAUR R/B 4.5 06:59:54 22° NNW 07:01:42 85° NE 07:04:42 10° SSE
Cosmos 44 3.6 06:58:03 11° WSW 07:03:02 52° NW 07:07:57 10° NE
Lacrosse 5 rocket 1.4 07:01:22 22° WNW 07:04:06 84° SSW 07:08:36 10° ESE
Cosmos 1626 Rocket 3.6 07:01:36 10° NNW 07:05:58 56° W 07:10:15 10° S
Meteor 2-15 4.5 07:01:01 10° NNW 07:07:11 89° E 07:13:15 10° S
Cosmos 405 Rocket 2.5 07:03:41 10° NNW 07:07:30 77° W 07:11:14 10° S
Cosmos 1066 Rocket 4.1 07:04:39 10° NNW 07:10:00 64° W 07:15:24 10° S
CSL-04 Rocket 3.8 07:06:12 10° N 07:11:38 57° WNW 07:17:00 10° SW
Cosmos 1269 Rocket 4.1 07:06:25 10° SW 07:11:39 59° WNW 07:16:55 10° NNE
Meteor 1-12 Rocket 4.2 07:07:51 10° SSW 07:13:29 80° WNW 07:19:14 10° NNE
USA 215 3.7 07:09:41 10° ENE 07:16:12 66° SSE 07:22:41 10° SW
SL-8 Rocket 4.2 07:11:11 10° SW 07:17:08 46° WNW 07:23:05 10° N
IRS-1A Rocket 4.3 07:12:09 10° NNE 07:17:51 71° WNW 07:23:37 10° SSW
Ariane Rocket 3.4 07:13:28 10° N 07:18:11 40° WNW 07:22:53 10° SW
AQUARIUS 4.1 07:16:33 10° NNE 07:21:05 86° WNW 07:25:35 10° SSW
Cosmos 2237 Rocket 4.1 07:18:51 10° NW 07:21:29 14° N 07:24:19 10° NNE
SJ-12 3.9 07:17:39 10° N 07:21:49 70° WNW 07:25:57 10° SSW
CSL-04 Debris 4.3 07:17:19 10° N 07:22:39 54° WNW 07:27:58 10° SW
Cosmos 1331 Rocket 4.4 07:18:47 11° NW 07:23:25 42° WSW 07:28:15 10° S
Cosmos 1455 Rocket 3.4 07:20:23 10° SW 07:24:28 40° WNW 07:28:36 10° N
Cosmos 2251 Rocket 3.9 07:23:02 10° SSW 07:28:24 75° ESE 07:33:48 10° NNE
Meteor 2-21 4.5 07:23:28 10° SSW 07:29:41 81° WNW 07:35:57 10° N
COSMOS 2487 4.5 07:27:04 10° S 07:30:19 33° ESE 07:33:37 10° NE
Meteor 1-29 3.6 07:27:41 10° SSW 07:30:50 36° W 07:34:01 10° NNW
Cosmos 2366 rocket 4.2 07:25:22 10° SW 07:31:29 49° WNW 07:37:40 10° N
Cosmos 1048 Rocket 4.2 07:26:35 10° SW 07:31:33 47° NW 07:36:38 10° NNE
Cosmos 1697 Rocket 3.3 07:26:12 10° NNW 07:31:47 54° NE 07:37:19 10° SE
SL-16 R/B 3.9 07:27:37 10° NNW 07:32:10 24° NNE 07:36:42 10° E
Cosmos 1975 3.2 07:28:47 10° SW 07:32:43 44° WNW 07:36:41 10° N
CORIOLIS 4.2 07:27:36 10° NNE 07:33:00 89° WNW 07:38:22 10° SSW
ATLAS 5 CENTAUR R/B 2.4 07:29:56 11° NW 07:35:31 88° NE 07:41:51 10° SE
Cosmos 1656 4.0 07:30:45 10° NNW 07:36:25 71° NE 07:42:07 10° SE
CENTAUR R/B 3.6 07:30:44 12° WNW 07:36:53 39° N 07:44:09 10° ENE
Cosmos 2123 Rocket 4.2 07:30:47 10° N 07:37:05 81° E 07:43:18 10° SSE
COSMOS 2455 3.7 07:33:54 10° NW 07:39:41 43° NE 07:45:25 10° ESE
SPOT 3 Rocket 3.5 07:36:07 10° NNE 07:41:16 71° WNW 07:46:23 10° SSW
Meteor 2-14 Rocket 4.5 07:40:01 10° SSW 07:46:10 81° WNW 07:52:23 10° N
Cosmos 1441 Rocket 3.2 07:42:34 10° NNW 07:46:33 72° W 07:50:26 10° S
Abrixas rocket 3.8 07:45:10 10° WSW 07:48:09 30° S 07:51:08 10° SE
SL-27 R/B 2.9 07:46:55 10° SW 07:50:21 41° WNW 07:53:53 10° NNE
Cosmos 2219 Rocket 4.2 07:47:51 10° NNW 07:50:38 14° N 07:53:24 10° NE
Cosmos 1726 Rocket 4.2 07:48:06 10° S 07:52:23 60° E 07:56:45 10° NNE
COSMOS 2406 3.2 07:46:55 10° SW 07:52:33 65° NW 07:58:15 10° NNE
YAOGAN 1 2.8 07:48:48 10° N 07:52:59 48° WNW 07:57:09 10° SW
SJ-6B 4.3 07:50:55 10° NNE 07:54:39 42° E 07:58:27 10° S
Cosmos 2369 3.9 07:50:12 10° NW 07:55:48 62° WSW 08:01:21 10° SSE
Cosmos 1867 4.3 07:51:01 10° NW 07:56:03 38° WSW 08:01:01 10° S
MOS 1 4.3 07:50:42 10° NNE 07:56:16 60° WNW 08:01:48 10° SW
USA 238 DEB 3.9 07:52:47 10° NW 07:59:52 80° NE 08:06:58 10° SE
USA 238 3.9 07:52:53 10° NW 07:59:58 80° NE 08:07:04 10° SE
Cosmos 1607 4.1 07:54:03 10° NW 08:00:17 77° NE 08:06:35 10° SE
ATLAS 3B R/B 2.8 07:54:38 10° NW 08:01:41 77° SW 08:08:18 10° SE
